Theta_e
322 322 323 324 325 325 321 323 324 321 320 319 320 323 321 323 322 320 324 327 327 326 325 323 321 320 319 319 318 316 314 311 310 311 309 311 310 312 313 313 316 316 314
317 318 318 318 319 319 320 321 323 324 323 325 328 329 328 328 328 327 326 329 326 323 323 323 321 322 318 318 317 315 315 315 312 311 311 308 310 311 311 312 314 315 313
312 310 311 312 313 315 315 314 316 318 319 319 320 321 322 322 322 322 323 324 323 323 321 320 318 319 318 318 316 315 316 316 314 312 312 312 310 311 311 309 310 310 312
307 306 305 305 306 307 310 312 312 312 310 311 313 315 316 315 315 313 312 310 310 311 311 312 312 312 313 315 315 315 316 315 316 314 314 314 311 310 308 308 308 307 307
305 305 304 304 305 305 307 307 308 308 310 310 311 311 311 311 311 309 308 307 306 307 310 311 311 313 315 312 309 308 311 312 313 313 311 312 308 305 305 308 308 305 305
305 305 305 304 304 303 303 303 304 304 305 305 305 307 306 310 303 302 304 303 303 302 301 302 304 309 309 309 309 310 309 307 305 305 306 307 310 309 307 306 305 301 302
304 305 304 303 302 301 301 301 301 301 301 301 302 303 302 302 298 298 301 299 298 297 298 299 301 304 303 303 305 305 304 305 305 303 302 302 303 305 307 307 304 304 304
302 303 303 302 301 301 300 299 299 298 298 299 299 300 299 302 299 297 298 296 296 296 297 297 297 298 300 301 301 301 301 302 302 304 304 304 304 305 306 307 308 308 305
301 301 302 301 300 298 297 296 296 296 296 296 298 297 297 297 297 296 296 294 295 295 296 297 298 298 298 296 297 299 300 299 303 302 301 300 298 298 301 303 303 304 303
300 300 298 298 296 294 293 293 293 293 293 295 294 295 297 295 295 295 295 293 293 294 294 295 297 296 295 295 295 296 296 297 299 299 301 302 301 302 301 303 303 302 305
297 296 295 293 293 292 290 290 290 290 290 290 291 292 292 294 294 295 295 295 295 295 295 295 295 296 294 293 293 295 296 297 297 297 297 299 300 301 301 303 306 306 306
294 293 291 290 291 292 288 288 287 287 287 287 288 289 292 294 297 296 294 294 295 295 295 296 297 295 293 293 293 294 293 294 295 295 296 297 298 298 300 303 307 308 310
289 288 288 288 289 288 286 285 285 287 288 290 291 291 293 295 296 296 294 294 295 295 296 296 294 293 293 294 294 293 293 293 293 293 294 296 297 300 302 303 307 311 311
286 286 286 285 286 285 286 286 286 289 289 290 290 291 292 293 294 295 294 293 294 294 294 294 294 294 293 294 294 294 295 296 297 297 298 299 301 301 302 305 305 306 307
284 284 283 284 283 284 287 289 289 291 291 290 290 291 291 291 292 291 290 290 290 291 291 291 291 292 291 292 292 294 296 298 300 302 301 300 300 301 301 304 304 304 303
282 285 285 286 287 288 287 288 291 291 291 291 291 291 292 291 290 289 289 289 289 289 290 290 290 291 291 292 292 293 296 298 301 302 302 303 301 300 300 302 303 301 300
285 286 286 287 287 287 289 289 288 291 292 292 290 290 290 289 288 288 289 289 289 290 291 291 291 292 292 292 293 294 295 299 302 302 303 303 304 303 300 303 304 304 304
287 288 287 287 288 288 288 287 287 287 287 288 290 289 288 288 288 288 289 290 292 293 293 292 293 294 294 295 296 297 298 301 302 302 303 306 305 305 306 306 306 306 306
287 288 288 288 288 287 287 286 286 286 286 286 287 287 287 287 288 288 289 289 289 290 292 293 294 295 296 297 299 301 302 302 302 303 306 309 308 307 307 308 307 297 301
289 289 289 288 287 287 286 285 285 285 285 285 285 284 285 285 285 286 287 287 288 288 290 292 295 296 297 299 301 302 302 304 304 307 309 309 309 309 308 308 309 308 310
287 287 285 287 286 286 286 286 286 285 285 285 285 286 284 284 284 285 285 286 287 287 289 292 294 298 298 300 300 301 300 301 301 302 309 309 309 308 309 309 309 309 310
288 287 287 286 286 286 286 286 286 285 285 285 285 285 284 285 284 284 285 286 287 288 290 291 293 297 298 299 299 301 298 298 299 300 303 306 308 309 310 309 310 310 312
288 287 286 286 286 285 285 286 286 285 285 285 285 284 284 284 284 284 285 285 286 287 289 290 292 293 295 297 296 295 294 293 295 299 300 302 303 305 308 310 310 309 310
287 288 287 286 287 285 285 284 283 284 284 284 284 284 283 283 284 284 285 285 286 287 287 288 289 289 292 291 291 291 291 289 291 294 297 302 302 303 305 306 313 311 310
288 287 287 285 284 282 282 281 280 281 281 282 282 283 283 283 283 283 284 285 285 286 286 287 287 288 289 288 288 287 286 285 287 286 293 301 302 303 304 311 312 311 310
285 285 283 283 282 282 281 280 279 279 280 280 280 281 281 281 282 282 283 284 284 285 286 286 286 287 287 287 286 285 285 285 286 286 287 299 301 301 301 305 312 311 311
Wind_Speed
8 7 9 7 6 5 4 3 4 4 5 6 6 6 6 5 4 4 10 15 15 13 9 7 7 6 5 5 4 5 6 6 9 5 5 5 4 6 6 4 5 5 4
5 8 8 7 7 7 7 6 3 4 3 4 3 6 6 5 4 13 17 15 11 6 7 5 7 6 7 7 5 7 8 8 8 15 6 6 8 7 6 6 5 4 3
7 9 7 7 7 6 6 5 4 4 5 6 5 6 5 4 1 3 2 4 4 5 3 4 4 4 6 6 6 7 7 7 8 10 12 4 5 3 6 4 5 5 4
7 7 7 6 6 6 6 7 7 6 7 6 6 5 5 4 5 5 6 6 7 6 5 5 5 5 5 5 5 6 5 6 8 10 11 9 5 5 3 4 6 4 5
8 8 7 7 7 8 8 8 7 7 8 8 9 8 6 5 5 5 1 1 2 3 4 4 5 6 8 8 5 7 5 5 5 6 8 7 4 4 6 6 8 5 5
8 7 7 7 7 7 8 8 8 8 8 7 7 7 7 6 13 12 10 7 5 4 4 4 5 9 10 14 13 11 8 7 10 9 9 10 8 4 3 4 5 3 6
6 6 7 6 7 6 5 6 6 5 5 6 6 6 6 6 6 7 8 4 5 5 6 6 7 8 10 10 9 6 6 10 11 9 12 11 10 6 6 5 5 6 6
6 7 6 6 6 6 8 9 8 6 6 4 5 5 4 3 4 1 3 4 5 6 6 6 7 8 8 9 11 11 11 9 9 9 11 12 10 7 8 9 9 8 5
5 5 5 6 7 8 7 6 5 5 5 5 5 6 5 5 7 8 3 3 5 6 6 5 6 8 10 12 9 9 9 9 9 13 15 17 15 13 13 7 8 9 10
6 7 7 6 6 6 6 6 3 3 4 5 7 6 8 6 7 8 5 3 5 5 6 6 10 9 12 12 8 10 11 11 11 12 11 11 9 9 13 11 9 12 11
8 7 8 7 5 5 4 3 5 5 5 5 6 6 7 7 7 6 5 6 6 7 6 7 6 10 9 9 10 8 11 11 14 12 12 11 9 9 8 10 11 11 11
6 6 5 5 6 5 5 5 5 5 5 6 6 5 5 5 6 8 10 9 11 7 7 7 9 12 11 16 14 15 16 15 9 9 10 10 10 9 10 10 12 11 10
4 4 4 5 4 4 5 5 4 5 5 6 6 6 6 6 6 9 10 10 9 8 8 11 16 18 19 16 15 18 17 9 9 9 10 10 10 10 10 9 11 12 11
5 6 5 5 7 5 4 4 4 5 5 5 5 6 7 7 7 5 7 8 10 10 13 10 13 17 18 16 15 11 8 8 9 9 10 9 9 8 7 7 6 4 5
4 4 5 4 5 5 4 4 5 6 6 6 6 6 7 7 6 12 11 9 9 10 12 7 7 6 6 7 8 8 8 7 8 9 9 10 10 8 8 6 6 5 7
5 6 6 6 5 5 5 6 7 10 13 11 8 4 4 7 14 17 17 17 16 14 3 4 5 6 6 7 7 8 8 10 9 9 10 8 8 7 7 6 6 5 6
5 6 5 5 5 5 5 5 6 6 7 7 9 10 9 12 16 17 16 16 13 7 3 5 6 6 6 7 8 8 10 10 11 10 10 9 7 7 8 8 8 8 9
6 9 4 4 4 4 4 4 4 5 6 6 6 9 13 17 17 15 16 11 7 5 4 5 7 7 7 8 9 9 10 10 9 9 10 7 5 6 7 8 7 7 6
4 3 4 4 4 5 4 4 5 5 6 6 7 8 11 16 13 12 13 6 7 7 7 6 7 8 8 8 9 10 10 9 9 8 7 0 1 2 7 6 3 4 4
3 5 4 3 4 4 5 5 5 5 5 6 6 7 9 8 9 9 7 7 7 7 7 8 8 8 8 9 10 11 9 10 11 6 4 2 1 3 5 5 3 3 4
4 4 5 4 4 4 4 5 4 5 5 6 6 7 12 7 7 7 8 8 8 8 8 8 9 8 8 9 9 9 10 9 11 12 5 4 3 2 3 2 2 2 2
4 5 5 5 5 6 5 5 6 7 8 7 7 7 11 7 7 8 8 8 8 8 7 8 8 9 10 9 10 9 9 10 10 10 10 8 6 5 1 2 5 5 5
5 6 6 5 4 5 5 6 7 7 7 8 8 8 9 8 8 9 9 9 9 9 9 8 9 9 9 10 9 10 9 10 10 10 9 9 8 6 4 1 3 2 4
4 5 5 6 7 7 8 8 8 9 9 9 9 9 10 10 9 11 9 9 9 9 9 9 9 13 11 11 10 10 9 10 9 9 13 8 9 10 9 8 3 4 2
6 8 9 8 8 7 7 8 8 8 9 9 9 9 10 10 10 11 10 10 10 10 11 10 10 14 15 17 16 19 15 15 12 13 9 8 10 14 14 10 4 3 4
8 8 7 6 7 7 8 8 7 8 10 9 9 9 10 10 10 11 11 12 11 11 12 10 13 17 19 14 17 18 16 16 13 15 11 9 8 8 9 10 9 2 4
Wind_Direction
67 63 78 75 80 93 107 135 160 146 177 191 202 219 211 217 144 311 259 244 242 228 217 221 213 222 222 225 214 211 210 189 249 254 228 242 244 251 278 264 243 248 265
84 77 57 65 68 69 65 64 65 114 147 140 181 182 193 239 211 234 242 229 220 222 229 230 239 238 230 233 235 235 236 231 241 261 228 223 223 227 232 249 244 229 243
57 70 60 50 54 58 67 76 73 68 55 41 39 53 36 41 30 303 343 339 314 301 321 292 296 309 282 269 257 251 254 256 253 263 269 235 231 219 234 239 240 256 224
52 50 52 48 51 41 36 34 30 38 48 44 34 34 37 35 62 48 23 4 352 350 341 333 322 302 284 302 299 282 279 279 278 278 279 274 232 228 210 222 258 226 234
47 41 23 21 26 35 39 33 29 32 24 18 18 13 12 6 15 9 27 234 257 273 282 285 289 279 281 261 263 264 256 265 274 278 280 283 261 223 207 217 230 225 230
38 43 49 50 42 35 27 25 30 23 18 18 11 3 356 350 6 36 28 19 17 4 327 289 276 271 260 260 264 249 249 263 264 263 267 265 265 231 253 240 245 214 243
56 48 45 44 44 34 38 39 27 11 1 358 351 353 348 354 82 47 29 1 334 313 300 300 303 299 310 294 288 275 254 244 246 254 263 259 264 250 237 243 229 227 252
43 44 35 39 41 33 34 26 24 16 14 11 6 3 348 313 321 290 295 260 275 273 271 270 266 277 281 293 296 293 288 282 264 249 246 251 242 232 243 254 257 262 259
56 42 30 34 45 52 38 20 14 10 356 346 330 324 314 292 288 290 301 279 262 261 254 270 286 290 293 302 307 290 287 285 282 268 262 261 254 251 253 272 264 259 253
17 42 50 45 58 49 31 12 344 330 315 318 312 299 295 299 289 301 337 319 310 301 287 264 265 269 282 288 295 294 287 286 294 295 297 294 264 251 247 247 255 248 247
52 44 41 24 25 40 6 344 334 323 313 307 305 302 297 288 296 337 0 335 313 309 302 303 295 285 287 293 288 283 277 293 293 287 280 273 264 255 254 253 243 238 245
36 35 22 11 355 353 344 323 314 309 307 303 304 308 299 308 335 318 317 310 309 304 296 295 291 290 287 286 283 275 268 272 274 272 269 262 258 256 258 255 248 233 234
21 3 339 332 326 342 325 314 316 307 313 322 327 319 315 317 316 309 307 314 311 298 287 282 280 279 277 282 270 281 284 272 264 261 256 255 249 253 259 255 255 235 226
347 332 323 329 331 313 304 297 302 311 314 314 313 312 310 313 321 341 329 312 305 304 306 300 299 290 281 277 286 284 278 262 258 252 251 253 256 253 254 255 246 231 214
328 314 323 311 308 304 299 310 306 293 288 299 299 300 314 318 330 325 321 315 302 288 298 290 293 288 289 291 296 284 280 276 272 278 256 251 248 243 245 243 240 232 224
337 336 325 319 317 314 310 308 285 271 287 294 307 302 321 317 324 321 312 304 295 296 282 290 304 304 299 294 291 295 290 283 278 276 272 256 241 236 242 244 234 218 228
312 304 305 312 308 307 313 316 329 339 329 346 21 0 348 326 329 323 321 317 303 301 265 311 302 298 291 285 281 280 280 277 275 273 275 267 242 221 221 229 218 217 232
305 316 311 304 321 348 2 1 348 349 351 354 355 356 346 341 331 330 336 329 338 326 314 306 302 299 290 291 289 282 281 285 284 279 279 263 238 231 255 219 208 213 206
314 319 344 359 4 16 8 6 3 0 358 350 350 353 343 339 336 345 345 350 334 330 337 323 313 310 308 305 299 299 302 300 294 291 300 196 157 265 280 179 180 219 176
318 16 11 12 7 12 21 20 15 12 7 3 358 352 345 345 358 351 345 338 336 332 330 325 316 310 314 320 326 337 339 349 349 320 322 302 96 4 354 33 38 67 105
49 56 47 41 31 19 17 12 1 358 7 4 0 355 347 349 346 342 338 340 340 334 327 327 322 325 329 339 340 345 353 360 355 350 13 22 2 336 343 1 352 49 89
58 54 46 47 41 37 32 29 29 23 12 5 7 1 357 3 355 352 346 342 339 334 329 328 331 338 343 342 347 349 354 351 349 352 351 351 352 353 9 6 353 28 61
64 69 67 53 39 25 22 28 28 24 16 14 10 5 4 2 358 358 352 346 342 342 341 340 340 346 343 356 358 355 355 343 331 331 329 342 346 355 353 274 155 108 79
61 54 56 44 42 44 36 30 26 17 25 20 15 12 7 1 360 356 357 352 349 349 349 350 349 347 350 353 351 349 345 338 323 326 326 333 349 352 335 325 67 126 120
59 63 57 47 41 35 32 31 27 21 21 16 12 12 8 3 2 1 357 357 355 354 354 351 350 348 358 352 351 345 337 333 332 332 328 330 344 347 352 357 7 152 143
60 64 56 50 48 44 42 35 24 23 28 24 20 13 6 1 360 1 357 359 356 357 357 353 353 352 358 354 349 339 340 341 342 338 328 328 354 351 350 342 360 66 121